| time (UTC) | temp C | wind direction | speed KPH | gust KPH | rain 1hr cm | rain 24hr cm | rain mn cm | humidity % | barometer mb |
| 20260507090004 | 12 | 204 | 1.6 | 9.7 | 0.00 | 0.00 | 0.00 | 64 | 1044.8 |
| 20260507085403 | 12 | 195 | 3.2 | 9.7 | 0.00 | 0.00 | 0.00 | 63 | 1044.8 |
| 20260507084503 | 12 | 188 | 0.0 | 6.4 | 0.00 | 0.00 | 0.00 | 66 | 1044.8 |
| 20260507083603 | 10 | 114 | 0.0 | 6.4 | 0.00 | 0.00 | 0.00 | 72 | 1044.9 |
| 20260507082703 | 10 | 115 | 0.0 | 3.2 | 0.00 | 0.00 | 0.00 | 73 | 1044.9 |
| 20260507081803 | 11 | 95 | 0.0 | 3.2 | 0.00 | 0.00 | 0.00 | 72 | 1044.8 |
| 20260507080903 | 12 | 169 | 0.0 | 3.2 | 0.00 | 0.00 | 0.00 | 67 | 1044.8 |
| 20260507080003 | 11 | 158 | 0.0 | 6.4 | 0.00 | 0.00 | 0.00 | 70 | 1044.8 |
| 20260507075403 | 11 | 231 | 1.6 | 11.3 | 0.00 | 0.00 | 0.00 | 71 | 1045.0 |
| 20260507074503 | 11 | 166 | 1.6 | 6.4 | 0.00 | 0.00 | 0.00 | 71 | 1044.7 |
| 20260507073603 | 11 | 47 | 1.6 | 6.4 | 0.00 | 0.00 | 0.00 | 71 | 1044.9 |
| 20260507072703 | 11 | 147 | 3.2 | 6.4 | 0.00 | 0.00 | 0.00 | 74 | 1044.8 |
| 20260507071803 | 10 | 88 | 0.0 | 11.3 | 0.00 | 0.00 | 0.00 | 74 | 1044.7 |
| 20260507070903 | 11 | 145 | 0.0 | 3.2 | 0.00 | 0.00 | 0.00 | 73 | 1044.8 |
| 20260507070005 | 10 | 54 | 0.0 | 3.2 | 0.00 | 0.00 | 0.00 | 75 | 1044.7 |
| 20260507065614 | 10 | 69 | 0.0 | 3.2 | 0.00 | 0.00 | 0.00 | 76 | 1044.6 |
| 20260507064503 | 8 | 137 | 0.0 | 6.4 | 0.00 | 0.00 | 0.00 | 80 | 1044.7 |
| 20260507063603 | 8 | 39 | 0.0 | 3.2 | 0.00 | 0.00 | 0.00 | 82 | 1044.6 |
| 20260507062703 | 8 | 33 | 0.0 | 3.2 | 0.00 | 0.00 | 0.00 | 84 | 1044.6 |
| 20260507061803 | 8 | 52 | 0.0 | 3.2 | 0.00 | 0.00 | 0.00 | 86 | 1044.5 |
| 20260507061116 | 7 | 48 | 1.6 | 3.2 | 0.00 | 0.00 | 0.00 | 87 | 1044.5 |
| 20260507060003 | 7 | 41 | 0.0 | 3.2 | 0.00 | 0.00 | 0.00 | 88 | 1044.4 |
| 20260507055615 | 7 | 33 | 0.0 | 3.2 | 0.00 | 0.00 | 0.00 | 89 | 1044.5 |
| 20260507054503 | 7 | 52 | 0.0 | 3.2 | 0.00 | 0.00 | 0.00 | 89 | 1044.5 |
| 20260507053603 | 7 | 62 | 0.0 | 3.2 | 0.00 | 0.00 | 0.00 | 89 | 1044.3 |
| 20260507052703 | 7 | 55 | 0.0 | 6.4 | 0.00 | 0.00 | 0.00 | 89 | 1044.2 |
| 20260507051803 | 7 | 48 | 0.0 | 3.2 | 0.00 | 0.00 | 0.00 | 90 | 1044.2 |
| 20260507050903 | 7 | 65 | 3.2 | 3.2 | 0.00 | 0.00 | 0.00 | 90 | 1043.9 |
| 20260507050003 | 7 | 67 | 0.0 | 3.2 | 0.00 | 0.00 | 0.00 | 91 | 1043.9 |
| 20260507045403 | 7 | 0 | 0.0 | 0.0 | 0.00 | 0.00 | 0.00 | 91 | 1043.8 |
| 20260507044503 | 7 | 67 | 0.0 | 3.2 | 0.00 | 0.00 | 0.00 | 92 | 1043.8 |
| 20260507043603 | 7 | 67 | 0.0 | 3.2 | 0.00 | 0.00 | 0.00 | 92 | 1043.6 |
| 20260507042703 | 6 | 67 | 0.0 | 3.2 | 0.00 | 0.00 | 0.00 | 92 | 1043.8 |
| 20260507041803 | 6 | 0 | 0.0 | 0.0 | 0.00 | 0.00 | 0.00 | 92 | 1043.8 |
| 20260507040903 | 6 | 63 | 0.0 | 3.2 | 0.00 | 0.00 | 0.00 | 92 | 1043.8 |
| 20260507040214 | 6 | 55 | 0.0 | 3.2 | 0.00 | 0.00 | 0.00 | 92 | 1043.9 |
| 20260507035616 | 6 | 45 | 0.0 | 3.2 | 0.00 | 0.00 | 0.00 | 92 | 1043.7 |
| 20260507034503 | 6 | 45 | 0.0 | 3.2 | 0.00 | 0.00 | 0.00 | 91 | 1044.1 |
| 20260507033816 | 6 | 0 | 0.0 | 0.0 | 0.00 | 0.00 | 0.00 | 91 | 1043.5 |
| 20260507032703 | 7 | 0 | 0.0 | 0.0 | 0.00 | 0.00 | 0.00 | 91 | 1043.7 |
| 20260507031803 | 7 | 0 | 0.0 | 0.0 | 0.00 | 0.00 | 0.00 | 91 | 1043.8 |
| 20260507030903 | 6 | 0 | 0.0 | 0.0 | 0.00 | 0.00 | 0.00 | 91 | 1043.7 |
| 20260507030215 | 7 | 0 | 0.0 | 0.0 | 0.00 | 0.00 | 0.00 | 91 | 1043.8 |
| 20260507025403 | 7 | 0 | 0.0 | 0.0 | 0.00 | 0.00 | 0.00 | 91 | 1044.1 |
| 20260507024503 | 6 | 58 | 0.0 | 3.2 | 0.00 | 0.00 | 0.00 | 91 | 1043.7 |
| 20260507023603 | 6 | 0 | 0.0 | 0.0 | 0.00 | 0.00 | 0.00 | 91 | 1043.7 |
| 20260507022703 | 6 | 67 | 0.0 | 3.2 | 0.00 | 0.00 | 0.00 | 91 | 1043.7 |
| 20260507021803 | 6 | 0 | 0.0 | 0.0 | 0.00 | 0.00 | 0.00 | 90 | 1043.7 |
| 20260507021113 | 7 | 0 | 0.0 | 0.0 | 0.00 | 0.00 | 0.00 | 90 | 1043.4 |
| 20260507020003 | 7 | 0 | 0.0 | 0.0 | 0.00 | 0.00 | 0.00 | 89 | 1043.7 |
| 20260507015403 | 7 | 0 | 0.0 | 0.0 | 0.00 | 0.00 | 0.00 | 89 | 1043.5 |
| 20260507014503 | 7 | 56 | 0.0 | 6.4 | 0.00 | 0.00 | 0.00 | 88 | 1043.6 |
| 20260507013603 | 7 | 32 | 1.6 | 6.4 | 0.00 | 0.00 | 0.00 | 87 | 1043.5 |
| 20260507012703 | 8 | 49 | 0.0 | 3.2 | 0.00 | 0.00 | 0.00 | 87 | 1043.5 |
| 20260507011803 | 8 | 38 | 1.6 | 3.2 | 0.00 | 0.00 | 0.00 | 87 | 1043.7 |
| 20260507010903 | 7 | 42 | 0.0 | 6.4 | 0.00 | 0.00 | 0.00 | 87 | 1043.6 |
| 20260507010003 | 7 | 36 | 0.0 | 6.4 | 0.00 | 0.00 | 0.00 | 87 | 1043.7 |
| 20260507005403 | 7 | 16 | 0.0 | 3.2 | 0.00 | 0.00 | 0.00 | 87 | 1043.4 |
| 20260507004503 | 7 | 4 | 0.0 | 6.4 | 0.00 | 0.00 | 0.00 | 87 | 1043.7 |
| 20260507003812 | 7 | 20 | 1.6 | 6.4 | 0.00 | 0.00 | 0.00 | 87 | 1043.5 |
| 20260507002703 | 7 | 344 | 0.0 | 3.2 | 0.00 | 0.00 | 0.00 | 87 | 1043.7 |
| 20260507001803 | 7 | 33 | 0.0 | 3.2 | 0.00 | 0.00 | 0.00 | 87 | 1043.5 |
| 20260507000903 | 7 | 67 | 0.0 | 3.2 | 0.00 | 0.00 | 0.00 | 88 | 1043.8 |
| 20260507000003 | 7 | 67 | 0.0 | 3.2 | 0.00 | 0.00 | 0.00 | 88 | 1043.7 |
| 20260506235403 | 7 | 67 | 0.0 | 3.2 | 0.00 | 0.00 | 0.00 | 87 | 1043.5 |
| 20260506234503 | 7 | 65 | 0.0 | 3.2 | 0.00 | 0.00 | 0.00 | 86 | 1043.6 |
| 20260506233603 | 7 | 56 | 1.6 | 6.4 | 0.00 | 0.00 | 0.00 | 86 | 1043.6 |
| 20260506232703 | 8 | 44 | 1.6 | 3.2 | 0.00 | 0.00 | 0.00 | 85 | 1043.2 |
| 20260506231803 | 8 | 22 | 0.0 | 3.2 | 0.00 | 0.00 | 0.00 | 85 | 1043.6 |
| 20260506231115 | 8 | 29 | 1.6 | 3.2 | 0.00 | 0.00 | 0.00 | 85 | 1043.4 |
| 20260506230213 | 8 | 348 | 0.0 | 3.2 | 0.00 | 0.00 | 0.00 | 84 | 1043.4 |
| 20260506225403 | 8 | 22 | 0.0 | 3.2 | 0.00 | 0.00 | 0.00 | 84 | 1043.4 |
| 20260506224503 | 8 | 326 | 0.0 | 3.2 | 0.00 | 0.00 | 0.00 | 83 | 1043.2 |
| 20260506223603 | 8 | 37 | 0.0 | 3.2 | 0.00 | 0.00 | 0.00 | 83 | 1043.4 |
| 20260506222703 | 8 | 40 | 1.6 | 6.4 | 0.00 | 0.00 | 0.00 | 82 | 1043.2 |
| 20260506221803 | 8 | 36 | 0.0 | 6.4 | 0.00 | 0.00 | 0.00 | 82 | 1043.2 |
| 20260506220903 | 8 | 17 | 0.0 | 6.4 | 0.00 | 0.00 | 0.00 | 81 | 1043.0 |
| 20260506220003 | 8 | 32 | 0.0 | 3.2 | 0.00 | 0.00 | 0.00 | 80 | 1043.4 |
| 20260506215403 | 8 | 318 | 0.0 | 6.4 | 0.00 | 0.00 | 0.00 | 80 | 1043.2 |
| 20260506214503 | 8 | 6 | 1.6 | 6.4 | 0.00 | 0.00 | 0.00 | 80 | 1043.4 |
| 20260506213814 | 8 | 9 | 0.0 | 9.7 | 0.00 | 0.00 | 0.00 | 79 | 1043.3 |
| 20260506212917 | 8 | 35 | 1.6 | 9.7 | 0.00 | 0.00 | 0.00 | 79 | 1043.2 |
| 20260506211803 | 8 | 34 | 0.0 | 6.4 | 0.00 | 0.00 | 0.00 | 78 | 1043.2 |
| 20260506211117 | 9 | 22 | 0.0 | 6.4 | 0.00 | 0.00 | 0.00 | 77 | 1043.2 |
| 20260506210003 | 9 | 26 | 0.0 | 6.4 | 0.00 | 0.00 | 0.00 | 77 | 1043.0 |
| 20260506205403 | 9 | 25 | 0.0 | 6.4 | 0.00 | 0.00 | 0.00 | 77 | 1043.0 |
| 20260506204503 | 9 | 53 | 1.6 | 6.4 | 0.00 | 0.00 | 0.00 | 76 | 1043.0 |
| 20260506203603 | 9 | 55 | 3.2 | 6.4 | 0.00 | 0.00 | 0.00 | 75 | 1043.0 |
| 20260506202703 | 10 | 27 | 0.0 | 6.4 | 0.00 | 0.00 | 0.00 | 73 | 1042.8 |
| 20260506201803 | 10 | 41 | 1.6 | 11.3 | 0.00 | 0.00 | 0.00 | 72 | 1042.9 |
| 20260506200903 | 10 | 42 | 0.0 | 9.7 | 0.00 | 0.00 | 0.00 | 71 | 1043.0 |
| 20260506195403 | 10 | 44 | 3.2 | 9.7 | 0.00 | 0.00 | 0.00 | 69 | 1042.7 |
| 20260506194503 | 10 | 43 | 3.2 | 9.7 | 0.00 | 0.00 | 0.00 | 69 | 1042.6 |
| 20260506193603 | 10 | 32 | 0.0 | 9.7 | 0.00 | 0.00 | 0.00 | 68 | 1042.6 |
| 20260506192918 | 10 | 36 | 1.6 | 6.4 | 0.00 | 0.00 | 0.00 | 68 | 1042.5 |
| 20260506191803 | 10 | 37 | 0.0 | 6.4 | 0.00 | 0.00 | 0.00 | 66 | 1042.6 |
| 20260506190908 | 11 | 48 | 1.6 | 6.4 | 0.00 | 0.00 | 0.00 | 65 | 1042.4 |
| 20260506190003 | 11 | 51 | 1.6 | 6.4 | 0.00 | 0.00 | 0.00 | 64 | 1042.4 |
| 20260506185403 | 11 | 43 | 3.2 | 9.7 | 0.00 | 0.00 | 0.00 | 64 | 1042.4 |
| 20260506184503 | 11 | 41 | 3.2 | 11.3 | 0.00 | 0.00 | 0.00 | 63 | 1042.1 |
| 20260506183816 | 11 | 41 | 1.6 | 9.7 | 0.00 | 0.00 | 0.00 | 62 | 1042.3 |
| 20260506182703 | 11 | 65 | 4.8 | 11.3 | 0.00 | 0.00 | 0.00 | 61 | 1042.1 |
| 20260506181803 | 11 | 57 | 0.0 | 12.9 | 0.00 | 0.00 | 0.00 | 61 | 1041.9 |
| 20260506180903 | 11 | 43 | 3.2 | 12.9 | 0.00 | 0.00 | 0.00 | 60 | 1041.9 |
| 20260506180216 | 11 | 35 | 1.6 | 12.9 | 0.00 | 0.00 | 0.00 | 60 | 1041.9 |
| 20260506175403 | 11 | 47 | 3.2 | 14.5 | 0.00 | 0.00 | 0.00 | 60 | 1041.8 |
| 20260506174503 | 12 | 56 | 1.6 | 14.5 | 0.00 | 0.00 | 0.00 | 60 | 1041.7 |
| 20260506173817 | 12 | 51 | 8.0 | 14.5 | 0.00 | 0.00 | 0.00 | 59 | 1041.6 |
| 20260506172703 | 12 | 41 | 1.6 | 14.5 | 0.00 | 0.00 | 0.00 | 59 | 1041.5 |
| 20260506171803 | 12 | 51 | 3.2 | 11.3 | 0.00 | 0.00 | 0.00 | 55 | 1041.5 |
| 20260506170903 | 13 | 24 | 6.4 | 11.3 | 0.00 | 0.00 | 0.00 | 53 | 1041.4 |
| 20260506170003 | 12 | 23 | 3.2 | 14.5 | 0.00 | 0.00 | 0.00 | 52 | 1041.3 |
| 20260506165403 | 12 | 3 | 3.2 | 14.5 | 0.00 | 0.00 | 0.00 | 54 | 1041.5 |
| 20260506164715 | 13 | 354 | 3.2 | 11.3 | 0.00 | 0.00 | 0.00 | 52 | 1041.4 |
| 20260506163603 | 13 | 10 | 3.2 | 9.7 | 0.00 | 0.00 | 0.00 | 53 | 1041.3 |
| 20260506162703 | 13 | 342 | 3.2 | 11.3 | 0.00 | 0.00 | 0.00 | 52 | 1041.5 |
| 20260506161803 | 13 | 353 | 3.2 | 9.7 | 0.00 | 0.00 | 0.00 | 52 | 1041.3 |
| 20260506160903 | 13 | 22 | 3.2 | 9.7 | 0.00 | 0.00 | 0.00 | 54 | 1041.4 |
| 20260506160003 | 13 | 17 | 3.2 | 6.4 | 0.00 | 0.00 | 0.00 | 54 | 1041.5 |
| 20260506155403 | 13 | 25 | 3.2 | 14.5 | 0.00 | 0.00 | 0.00 | 55 | 1041.7 |
| 20260506154503 | 13 | 355 | 3.2 | 11.3 | 0.00 | 0.00 | 0.00 | 54 | 1041.5 |
| 20260506153603 | 12 | 357 | 3.2 | 6.4 | 0.00 | 0.00 | 0.00 | 56 | 1041.5 |
| 20260506152703 | 12 | 31 | 1.6 | 9.7 | 0.00 | 0.00 | 0.00 | 57 | 1041.6 |
| 20260506151803 | 12 | 55 | 3.2 | 9.7 | 0.00 | 0.00 | 0.00 | 57 | 1041.6 |
| 20260506151115 | 12 | 353 | 1.6 | 9.7 | 0.00 | 0.00 | 0.00 | 56 | 1041.5 |
| 20260506150003 | 12 | 23 | 3.2 | 6.4 | 0.00 | 0.00 | 0.00 | 56 | 1041.6 |
| 20260506145403 | 12 | 337 | 3.2 | 9.7 | 0.00 | 0.00 | 0.00 | 56 | 1041.8 |
| 20260506144503 | 12 | 26 | 3.2 | 12.9 | 0.00 | 0.00 | 0.00 | 57 | 1041.7 |
| 20260506143603 | 12 | 51 | 3.2 | 11.3 | 0.00 | 0.00 | 0.00 | 59 | 1041.7 |
| 20260506142703 | 12 | 48 | 4.8 | 11.3 | 0.00 | 0.00 | 0.00 | 59 | 1041.5 |
| 20260506141803 | 12 | 50 | 3.2 | 9.7 | 0.00 | 0.00 | 0.00 | 58 | 1041.4 |
| 20260506140903 | 12 | 23 | 3.2 | 17.7 | 0.00 | 0.00 | 0.00 | 59 | 1041.5 |
| 20260506140003 | 12 | 12 | 4.8 | 12.9 | 0.00 | 0.00 | 0.00 | 60 | 1041.6 |
| 20260506135403 | 12 | 356 | 1.6 | 11.3 | 0.00 | 0.00 | 0.00 | 59 | 1041.7 |
| 20260506134503 | 12 | 21 | 3.2 | 12.9 | 0.00 | 0.00 | 0.00 | 59 | 1041.6 |
| 20260506133603 | 12 | 76 | 3.2 | 14.5 | 0.00 | 0.00 | 0.00 | 60 | 1041.7 |
| 20260506132703 | 12 | 31 | 1.6 | 14.5 | 0.00 | 0.00 | 0.00 | 60 | 1041.8 |
| 20260506131803 | 12 | 10 | 3.2 | 14.5 | 0.00 | 0.00 | 0.00 | 60 | 1041.7 |
| 20260506130903 | 13 | 7 | 6.4 | 14.5 | 0.00 | 0.00 | 0.00 | 59 | 1041.8 |
| 20260506130004 | 12 | 358 | 6.4 | 14.5 | 0.00 | 0.00 | 0.00 | 60 | 1041.8 |
| 20260506125403 | 12 | 342 | 3.2 | 11.3 | 0.00 | 0.00 | 0.00 | 61 | 1041.6 |
| 20260506124503 | 12 | 11 | 3.2 | 11.3 | 0.00 | 0.00 | 0.00 | 60 | 1041.5 |
| 20260506123603 | 11 | 14 | 3.2 | 17.7 | 0.00 | 0.00 | 0.00 | 62 | 1041.8 |
| 20260506122703 | 11 | 22 | 0.0 | 12.9 | 0.00 | 0.00 | 0.00 | 66 | 1041.7 |
| 20260506121803 | 11 | 54 | 3.2 | 17.7 | 0.00 | 0.00 | 0.00 | 66 | 1041.8 |
| 20260506120903 | 11 | 66 | 3.2 | 11.3 | 0.00 | 0.00 | 0.00 | 65 | 1041.8 |
| 20260506120003 | 11 | 26 | 1.6 | 11.3 | 0.00 | 0.00 | 0.00 | 64 | 1041.9 |
| 20260506115403 | 12 | 42 | 6.4 | 11.3 | 0.00 | 0.00 | 0.00 | 62 | 1042.0 |
| 20260506114503 | 12 | 38 | 6.4 | 12.9 | 0.00 | 0.00 | 0.00 | 60 | 1041.8 |
| 20260506113603 | 12 | 12 | 6.4 | 17.7 | 0.00 | 0.00 | 0.00 | 62 | 1042.0 |
| 20260506112703 | 12 | 340 | 4.8 | 11.3 | 0.00 | 0.00 | 0.00 | 61 | 1041.9 |
| 20260506111803 | 12 | 33 | 1.6 | 12.9 | 0.00 | 0.00 | 0.00 | 60 | 1041.7 |
| 20260506110903 | 12 | 320 | 4.8 | 14.5 | 0.00 | 0.00 | 0.00 | 61 | 1041.9 |
| 20260506110003 | 12 | 37 | 3.2 | 9.7 | 0.00 | 0.00 | 0.00 | 61 | 1041.9 |
| 20260506105403 | 11 | 26 | 3.2 | 9.7 | 0.00 | 0.00 | 0.00 | 63 | 1041.7 |
| 20260506104503 | 11 | 349 | 1.6 | 11.3 | 0.00 | 0.00 | 0.00 | 63 | 1041.7 |
| 20260506103603 | 11 | 3 | 6.4 | 14.5 | 0.00 | 0.00 | 0.00 | 61 | 1041.7 |
| 20260506102703 | 11 | 13 | 3.2 | 14.5 | 0.00 | 0.00 | 0.00 | 61 | 1041.8 |
| 20260506101803 | 11 | 291 | 3.2 | 11.3 | 0.00 | 0.00 | 0.00 | 59 | 1041.8 |
| 20260506100903 | 12 | 336 | 3.2 | 11.3 | 0.00 | 0.00 | 0.00 | 59 | 1041.7 |
| 20260506100003 | 11 | 22 | 0.0 | 6.4 | 0.00 | 0.00 | 0.00 | 60 | 1041.7 |
| 20260506095403 | 11 | 20 | 3.2 | 12.9 | 0.00 | 0.00 | 0.00 | 61 | 1041.8 |
| 20260506094503 | 11 | 4 | 3.2 | 11.3 | 0.00 | 0.00 | 0.00 | 61 | 1041.9 |
| 20260506093603 | 11 | 13 | 3.2 | 9.7 | 0.00 | 0.00 | 0.00 | 58 | 1041.6 |
| 20260506092703 | 10 | 6 | 3.2 | 11.3 | 0.00 | 0.00 | 0.00 | 62 | 1041.8 |
| 20260506091803 | 12 | 10 | 6.4 | 14.5 | 0.00 | 0.00 | 0.00 | 59 | 1041.8 |
| 20260506090903 | 11 | 1 | 4.8 | 12.9 | 0.00 | 0.00 | 0.00 | 61 | 1041.5 |